User: anonymous   Login
Location: Unspecified
(0.0000°N, 0.0000°E)
Time: 22:24:16
(UTC+00:00)
Language:

OBJECT C - Orbit

View from above orbital plane
View from above orbital plane
View from above satellite
View from above satellite

Ground track
Ground track

The orbit data is extracted from the following two-line orbital elements,

1 42827U 17042C   18168.38026780  .00000141  00000-0  19809-4 0  9992
2 42827  97.5977  70.7176 0014678 190.7743 169.3164 14.90822911 50321
Epoch (UTC): 17 June 2018 09:07:35
Eccentricity: 0.0014678
inclination: 97.5977°
perigee height: 585 km
apogee height: 605 km
right ascension of ascending node: 70.7176°
argument of perigee: 190.7743°
revolutions per day: 14.90822911
mean anomaly at epoch: 169.3164°
orbit number at epoch: 5032

The dashed part of the orbit path shows where the satellite is in the earth's shadow,  

DLR